THY301 LTAC-LTBA

Flight info

Callsign THY301
Flight time 0h 43m
Altitude 26000
Route PETAR UG8 TOKER
Aircraft A321/M-SDE3FGHIRWY/LB1

Departure

Time 2026-04-30 18:02
Airport Esenboğa International Airport (LTAC)

Arrival

Time 2026-04-30 18:45
Airport İstanbul Atatürk Airport (LTBA)
Time Latitude Longitude Altitude Speed Heading
2026-04-30 17:49 40.11345 32.98822 3137 ft 0 kts 127°
2026-04-30 17:53 40.11369 32.98782 3137 ft 3 kts 127°
2026-04-30 17:54 40.11400 32.98728 3137 ft 3 kts 121°
2026-04-30 17:55 40.11872 32.99065 3137 ft 17 kts 27°
2026-04-30 17:56 40.12385 32.99572 3136 ft 7 kts 245°
2026-04-30 17:57 40.12326 32.99502 3137 ft 39 kts 216°
2026-04-30 17:59 40.11760 32.98959 3137 ft 71 kts 216°
2026-04-30 18:00 40.11441 32.98347 3137 ft 0 kts 33°
2026-04-30 18:00 40.12556 32.99409 3137 ft 157 kts 36°
2026-04-30 18:01 40.14719 33.01518 3615 ft 212 kts 38°
2026-04-30 18:02 40.18722 33.05500 4941 ft 248 kts 34°
2026-04-30 18:02 40.23168 33.09104 6217 ft 267 kts 15°
2026-04-30 18:03 40.28275 33.05277 7689 ft 334 kts 293°
2026-04-30 18:04 40.26974 32.96760 9064 ft 350 kts 239°
2026-04-30 18:05 40.22825 32.86783 10659 ft 363 kts 253°
2026-04-30 18:06 40.21680 32.77626 11934 ft 372 kts 265°
2026-04-30 18:07 40.20921 32.63900 13746 ft 382 kts 266°
2026-04-30 18:08 40.20305 32.53400 15099 ft 390 kts 265°
2026-04-30 18:09 40.19354 32.39099 16904 ft 400 kts 265°
2026-04-30 18:10 40.18309 32.24405 18713 ft 410 kts 265°
2026-04-30 18:11 40.17351 32.09744 20473 ft 420 kts 268°
2026-04-30 18:11 40.17705 31.98277 21823 ft 429 kts 275°
2026-04-30 18:12 40.18609 31.87854 23028 ft 436 kts 277°
2026-04-30 18:13 40.19503 31.79897 23936 ft 442 kts 278°
2026-04-30 18:13 40.20777 31.69230 25136 ft 451 kts 278°
2026-04-30 18:14 40.21846 31.60335 25905 ft 461 kts 278°
2026-04-30 18:15 40.23334 31.47803 26002 ft 467 kts 278°
2026-04-30 18:15 40.24809 31.35185 26000 ft 467 kts 278°
2026-04-30 18:16 40.25779 31.26788 26000 ft 467 kts 278°
2026-04-30 18:16 40.26741 31.18380 26000 ft 467 kts 278°
2026-04-30 18:17 40.27216 31.14198 26000 ft 467 kts 278°
2026-04-30 18:17 40.27688 31.10030 26000 ft 467 kts 278°
2026-04-30 18:17 40.28633 31.01635 26000 ft 467 kts 278°
2026-04-30 18:18 40.29107 30.97405 26000 ft 467 kts 278°
2026-04-30 18:18 40.29541 30.93514 26000 ft 467 kts 278°
2026-04-30 18:18 40.30012 30.89270 25908 ft 468 kts 278°
2026-04-30 18:18 40.30478 30.85057 25710 ft 469 kts 278°
2026-04-30 18:19 40.31001 30.80819 25487 ft 468 kts 281°
2026-04-30 18:19 40.31831 30.76717 25265 ft 468 kts 286°
2026-04-30 18:19 40.32905 30.72665 25042 ft 467 kts 289°
2026-04-30 18:19 40.34099 30.68750 24821 ft 466 kts 291°
2026-04-30 18:20 40.35379 30.64861 24598 ft 464 kts 292°
2026-04-30 18:20 40.36665 30.61118 24381 ft 463 kts 293°
2026-04-30 18:20 40.38048 30.57183 24150 ft 461 kts 294°
2026-04-30 18:20 40.39405 30.53362 23925 ft 460 kts 294°
2026-04-30 18:21 40.40762 30.49556 23699 ft 458 kts 294°
2026-04-30 18:21 40.42113 30.45767 23473 ft 456 kts 294°
2026-04-30 18:21 40.43453 30.41998 23247 ft 454 kts 294°
2026-04-30 18:21 40.44778 30.38255 23022 ft 453 kts 294°
2026-04-30 18:22 40.46102 30.34498 22796 ft 451 kts 293°
2026-04-30 18:22 40.48702 30.27076 22348 ft 448 kts 293°
2026-04-30 18:22 40.49997 30.23358 22122 ft 446 kts 293°
2026-04-30 18:23 40.51274 30.19678 21898 ft 445 kts 293°
2026-04-30 18:23 40.52559 30.15964 21671 ft 443 kts 293°
2026-04-30 18:23 40.53830 30.12279 21446 ft 441 kts 293°
2026-04-30 18:23 40.55002 30.08872 21237 ft 440 kts 293°
2026-04-30 18:24 40.57515 30.01539 20485 ft 441 kts 293°
2026-04-30 18:24 40.58782 29.97832 20036 ft 440 kts 293°
2026-04-30 18:24 40.59966 29.94362 19610 ft 437 kts 293°
2026-04-30 18:25 40.61191 29.90764 19164 ft 434 kts 293°
2026-04-30 18:25 40.63987 29.85602 18415 ft 433 kts 315°
2026-04-30 18:25 40.66185 29.82866 17969 ft 428 kts 309°
2026-04-30 18:26 40.68865 29.76027 17093 ft 419 kts 289°
2026-04-30 18:26 40.69737 29.72434 16653 ft 416 kts 285°
2026-04-30 18:26 40.70508 29.68755 16202 ft 413 kts 284°
2026-04-30 18:27 40.71757 29.61702 15328 ft 406 kts 278°
2026-04-30 18:27 40.72042 29.58037 14883 ft 402 kts 274°
2026-04-30 18:28 40.72206 29.50700 13982 ft 396 kts 270°
2026-04-30 18:28 40.72212 29.47318 13561 ft 394 kts 270°
2026-04-30 18:28 40.72181 29.40175 12663 ft 388 kts 269°
2026-04-30 18:29 40.72157 29.36633 12293 ft 382 kts 269°
2026-04-30 18:29 40.72085 29.26994 10916 ft 322 kts 269°
2026-04-30 18:30 40.72050 29.22563 10091 ft 285 kts 269°
2026-04-30 18:30 40.72006 29.17074 8964 ft 261 kts 269°
2026-04-30 18:31 40.71986 29.14700 8461 ft 257 kts 269°
2026-04-30 18:31 40.71949 29.10038 7484 ft 254 kts 269°
2026-04-30 18:32 40.71911 29.05535 6168 ft 235 kts 270°
2026-04-30 18:32 40.71878 29.03404 5546 ft 236 kts 270°
2026-04-30 18:32 40.71761 28.99183 4305 ft 229 kts 269°
2026-04-30 18:33 40.71704 28.97031 3644 ft 222 kts 269°
2026-04-30 18:33 40.71905 28.93295 2970 ft 201 kts 287°
2026-04-30 18:33 40.72460 28.91572 3019 ft 207 kts 294°
2026-04-30 18:34 40.73026 28.89931 3004 ft 208 kts 294°
2026-04-30 18:34 40.74227 28.86444 3001 ft 210 kts 294°
2026-04-30 18:34 40.74832 28.84687 3001 ft 210 kts 294°
2026-04-30 18:35 40.75440 28.82922 3001 ft 211 kts 294°
2026-04-30 18:35 40.76044 28.81167 3000 ft 211 kts 294°
2026-04-30 18:35 40.76647 28.79416 3000 ft 211 kts 294°
2026-04-30 18:36 40.77821 28.76005 3000 ft 211 kts 294°
2026-04-30 18:36 40.78420 28.74261 3000 ft 211 kts 294°
2026-04-30 18:36 40.79638 28.70722 3000 ft 211 kts 294°
2026-04-30 18:37 40.80040 28.69553 3000 ft 211 kts 294°
2026-04-30 18:37 40.80842 28.67321 2995 ft 211 kts 298°
2026-04-30 18:37 40.81603 28.65889 3007 ft 212 kts 307°
2026-04-30 18:37 40.82529 28.64380 3002 ft 212 kts 309°
2026-04-30 18:38 40.83458 28.62889 3000 ft 211 kts 309°
2026-04-30 18:38 40.84392 28.61388 3000 ft 211 kts 309°
2026-04-30 18:38 40.85280 28.59967 2999 ft 211 kts 310°
2026-04-30 18:38 40.86028 28.59125 2945 ft 214 kts 327°
2026-04-30 18:39 40.87878 28.59010 3004 ft 221 kts 17°
2026-04-30 18:39 40.88746 28.59787 3013 ft 227 kts 41°
2026-04-30 18:39 40.89410 28.61649 3010 ft 232 kts 78°
2026-04-30 18:39 40.89413 28.63785 3088 ft 229 kts 91°
2026-04-30 18:40 40.89570 28.65838 2983 ft 224 kts 78°
2026-04-30 18:40 40.90257 28.67673 3016 ft 221 kts 59°
2026-04-30 18:40 40.91119 28.69276 2984 ft 203 kts 54°
2026-04-30 18:40 40.91853 28.70774 2972 ft 190 kts 58°
2026-04-30 18:41 40.92513 28.72249 2974 ft 184 kts 59°
2026-04-30 18:41 40.93050 28.73402 2738 ft 186 kts 58°
2026-04-30 18:41 40.93237 28.73785 2671 ft 184 kts 57°
2026-04-30 18:41 40.93835 28.75025 2322 ft 186 kts 58°
2026-04-30 18:42 40.94522 28.76511 1816 ft 183 kts 59°
2026-04-30 18:42 40.95777 28.79371 717 ft 176 kts 58°
2026-04-30 18:42 40.96426 28.80729 264 ft 168 kts 57°
2026-04-30 18:45 40.97359 28.82615 175 ft 41 kts 32°
2026-04-30 18:45 40.97572 28.82757 175 ft 30 kts 11°
2026-04-30 18:45 40.97658 28.82742 175 ft 0 kts 315°
2026-04-30 18:46 40.97674 28.82694 175 ft 14 kts 266°
2026-04-30 18:46 40.97669 28.82654 175 ft 15 kts 259°
2026-04-30 18:46 40.97658 28.82587 175 ft 19 kts 258°
2026-04-30 18:46 40.97646 28.82513 175 ft 18 kts 259°
2026-04-30 18:47 40.97630 28.82394 175 ft 11 kts 259°
2026-04-30 18:47 40.97618 28.82311 175 ft 19 kts 257°
2026-04-30 18:47 40.97575 28.82257 175 ft 4 kts 167°
2026-04-30 18:47 40.97559 28.82262 175 ft 6 kts 167°
2026-04-30 18:48 40.97535 28.82269 175 ft 1 kts 166°
2026-04-30 18:48 40.97534 28.82270 175 ft 0 kts 167°